• In France
  • List of Countries
  • For 7 days
  • Water Temperature
  • Satellite Maps
  • Weather Map
  • Weather Widgets
  • user-avatar
    Login

    Hourly Weather Chododa

    Today, 22 August, Wednesday

    Time Temperature Precipitation Wind Pressure Humidity
    00:00 +10°C° 0 mm 2 mps 609 mmHg 64%
    01:00 +10°C° 0 mm 2 mps 609 mmHg 63%
    02:00 +10°C° 0 mm 2 mps 609 mmHg 62%
    03:00 +10°C° 0 mm 2 mps 609 mmHg 63%
    04:00 +10°C° 0 mm 2 mps 609 mmHg 64%
    05:00 +12°C° 0 mm 2 mps 609 mmHg 64%
    06:00 +12°C° 0 mm 1 mps 610 mmHg 64%
    07:00 +14°C° 0 mm 1 mps 610 mmHg 59%
    08:00 +16°C° 0 mm 1 mps 611 mmHg 55%
    09:00 +18°C° 0 mm 1 mps 612 mmHg 50%
    10:00 +19°C° 0.1 mm 1 mps 612 mmHg 49%
    11:00 +19°C° 0.1 mm 2 mps 612 mmHg 47%
    12:00 +20°C° 0.1 mm 2 mps 612 mmHg 46%
    13:00 +20°C° 0.2 mm 2 mps 612 mmHg 48%
    14:00 +20°C° 0.2 mm 2 mps 612 mmHg 50%
    15:00 +20°C° 0.2 mm 2 mps 612 mmHg 52%
    16:00 +19°C° 0.3 mm 2 mps 611 mmHg 59%
    17:00 +19°C° 0.3 mm 1 mps 611 mmHg 65%
    18:00 +18°C° 0.3 mm 1 mps 611 mmHg 71%
    19:00 +16°C° 0.1 mm 1 mps 611 mmHg 75%
    20:00 +15°C° 0.1 mm 1 mps 610 mmHg 78%
    21:00 +14°C° 0.1 mm 1 mps 610 mmHg 81%
    22:00 +13°C° 0.1 mm 1 mps 610 mmHg 82%
    23:00 +13°C° 0.1 mm 1 mps 610 mmHg 82%

    Tomorrow, 23 August, Thursday

    Time Temperature Precipitation Wind Pressure Humidity
    00:00 +12°C° 0.1 mm 1 mps 610 mmHg 83%
    01:00 +12°C° 0 mm 1 mps 610 mmHg 83%
    02:00 +12°C° 0 mm 1 mps 610 mmHg 83%
    03:00 +11°C° 0 mm 1 mps 610 mmHg 82%
    04:00 +12°C° 0 mm 1 mps 610 mmHg 81%
    05:00 +12°C° 0 mm 1 mps 610 mmHg 80%
    06:00 +12°C° 0 mm 1 mps 610 mmHg 78%
    07:00 +14°C° 0 mm 1 mps 611 mmHg 71%
    08:00 +16°C° 0 mm 1 mps 612 mmHg 63%
    09:00 +19°C° 0 mm 1 mps 613 mmHg 56%
    10:00 +19°C° 0 mm 2 mps 613 mmHg 54%
    11:00 +19°C° 0 mm 2 mps 613 mmHg 53%
    12:00 +20°C° 0 mm 2 mps 613 mmHg 52%
    13:00 +20°C° 0.1 mm 2 mps 613 mmHg 53%
    14:00 +20°C° 0.1 mm 2 mps 613 mmHg 55%
    15:00 +19°C° 0.1 mm 2 mps 613 mmHg 57%
    16:00 +20°C° 0 mm 1 mps 613 mmHg 60%
    17:00 +19°C° 0 mm 1 mps 612 mmHg 63%
    18:00 +18°C° 0 mm 1 mps 612 mmHg 67%
    19:00 +16°C° 0 mm 1 mps 612 mmHg 70%
    20:00 +14°C° 0 mm 1 mps 612 mmHg 74%
    21:00 +13°C° 0 mm 1 mps 611 mmHg 78%
    22:00 +12°C° 0 mm 1 mps 611 mmHg 78%
    23:00 +12°C° 0 mm 1 mps 611 mmHg 78%

    Day after tomorrow, 24 August, Friday

    Time Temperature Precipitation Wind Pressure Humidity
    00:00 +11°C° 0 mm 1 mps 611 mmHg 78%
    01:00 +11°C° 0 mm 1 mps 611 mmHg 77%
    02:00 +10°C° 0 mm 2 mps 611 mmHg 76%
    03:00 +10°C° 0 mm 2 mps 611 mmHg 75%
    04:00 +10°C° 0 mm 2 mps 611 mmHg 75%
    05:00 +12°C° 0 mm 2 mps 611 mmHg 74%
    06:00 +12°C° 0 mm 2 mps 611 mmHg 74%
    07:00 +14°C° 0 mm 2 mps 612 mmHg 67%
    08:00 +16°C° 0 mm 2 mps 613 mmHg 59%
    09:00 +18°C° 0 mm 2 mps 614 mmHg 52%
    10:00 +19°C° 0 mm 2 mps 614 mmHg 51%
    11:00 +20°C° 0 mm 2 mps 614 mmHg 49%
    12:00 +21°C° 0 mm 2 mps 614 mmHg 48%
    13:00 +21°C° 0.1 mm 2 mps 614 mmHg 49%
    14:00 +21°C° 0.1 mm 2 mps 614 mmHg 50%
    15:00 +21°C° 0.1 mm 2 mps 613 mmHg 51%
    16:00 +20°C° 0.1 mm 2 mps 613 mmHg 56%
    17:00 +19°C° 0.1 mm 2 mps 612 mmHg 61%
    18:00 +19°C° 0.1 mm 1 mps 612 mmHg 66%
    19:00 +16°C° 0 mm 1 mps 612 mmHg 67%
    20:00 +15°C° 0 mm 2 mps 611 mmHg 68%
    21:00 +13°C° 0 mm 2 mps 611 mmHg 69%
    22:00 +13°C° 0 mm 2 mps 611 mmHg 68%
    23:00 +12°C° 0 mm 2 mps 610 mmHg 68%

    25 August, Saturday

    Time Temperature Precipitation Wind Pressure Humidity
    00:00 +12°C° 0 mm 2 mps 610 mmHg 68%
    01:00 +12°C° 0 mm 2 mps 610 mmHg 70%
    02:00 +12°C° 0 mm 2 mps 609 mmHg 72%
    03:00 +10°C° 0 mm 2 mps 609 mmHg 74%
    04:00 +12°C° 0 mm 2 mps 609 mmHg 74%
    05:00 +12°C° 0 mm 2 mps 609 mmHg 75%
    06:00 +12°C° 0 mm 2 mps 610 mmHg 75%
    07:00 +15°C° 0 mm 2 mps 610 mmHg 68%
    08:00 +18°C° 0 mm 1 mps 611 mmHg 60%
    09:00 +21°C° 0 mm 1 mps 612 mmHg 53%
    10:00 +21°C° 0.1 mm 2 mps 612 mmHg 51%
    11:00 +21°C° 0.1 mm 2 mps 612 mmHg 50%
    12:00 +23°C° 0.1 mm 2 mps 612 mmHg 49%
    13:00 +23°C° 0.4 mm 2 mps 612 mmHg 50%
    14:00 +23°C° 0.4 mm 2 mps 612 mmHg 51%
    15:00 +23°C° 0.4 mm 2 mps 611 mmHg 52%
    16:00 +21°C° 0.1 mm 2 mps 611 mmHg 56%
    17:00 +21°C° 0.1 mm 1 mps 611 mmHg 61%
    18:00 +19°C° 0.1 mm 1 mps 610 mmHg 66%
    19:00 +18°C° 0 mm 1 mps 610 mmHg 69%
    20:00 +15°C° 0 mm 1 mps 609 mmHg 72%
    21:00 +14°C° 0 mm 1 mps 609 mmHg 76%
    22:00 +14°C° 0 mm 1 mps 609 mmHg 75%
    23:00 +13°C° 0 mm 1 mps 609 mmHg 74%

    26 August, Sunday

    Time Temperature Precipitation Wind Pressure Humidity
    00:00 +13°C° 0 mm 1 mps 608 mmHg 73%
    01:00 +13°C° 0 mm 1 mps 608 mmHg 71%
    02:00 +12°C° 0 mm 1 mps 608 mmHg 69%
    03:00 +12°C° 0 mm 1 mps 608 mmHg 67%
    04:00 +12°C° 0 mm 1 mps 608 mmHg 64%
    05:00 +12°C° 0 mm 1 mps 608 mmHg 61%
    06:00 +13°C° 0 mm 1 mps 608 mmHg 57%
    07:00 +15°C° 0 mm 1 mps 609 mmHg 52%
    08:00 +19°C° 0 mm 1 mps 610 mmHg 46%
    09:00 +21°C° 0 mm 1 mps 611 mmHg 41%
    10:00 +21°C° 0 mm 2 mps 611 mmHg 40%
    11:00 +23°C° 0 mm 2 mps 611 mmHg 40%
    12:00 +24°C° 0 mm 2 mps 611 mmHg 39%
    13:00 +24°C° 0 mm 2 mps 611 mmHg 40%
    14:00 +24°C° 0 mm 2 mps 611 mmHg 40%
    15:00 +24°C° 0 mm 2 mps 610 mmHg 40%
    16:00 +21°C° 0 mm 2 mps 610 mmHg 45%
    17:00 +20°C° 0 mm 2 mps 609 mmHg 51%
    18:00 +19°C° 0 mm 1 mps 609 mmHg 56%
    19:00 +18°C° 0 mm 1 mps 608 mmHg 57%
    20:00 +15°C° 0 mm 1 mps 608 mmHg 59%
    21:00 +14°C° 0 mm 1 mps 608 mmHg 60%
    22:00 +13°C° 0 mm 1 mps 608 mmHg 56%
    23:00 +13°C° 0 mm 2 mps 607 mmHg 52%

    27 August, Monday

    Time Temperature Precipitation Wind Pressure Humidity
    00:00 +13°C° 0 mm 2 mps 607 mmHg 48%
    01:00 +13°C° 0 mm 2 mps 607 mmHg 47%
    02:00 +12°C° 0 mm 2 mps 607 mmHg 47%
    03:00 +12°C° 0 mm 2 mps 607 mmHg 46%
    04:00 +13°C° 0 mm 2 mps 607 mmHg 49%
    05:00 +13°C° 0 mm 1 mps 607 mmHg 52%
    06:00 +13°C° 0 mm 1 mps 608 mmHg 55%
    07:00 +15°C° 0 mm 1 mps 608 mmHg 51%
    08:00 +19°C° 0 mm 1 mps 609 mmHg 47%
    09:00 +21°C° 0 mm 1 mps 610 mmHg 43%
    10:00 +21°C° 0 mm 2 mps 610 mmHg 43%
    11:00 +23°C° 0 mm 2 mps 610 mmHg 43%
    12:00 +23°C° 0 mm 2 mps 611 mmHg 43%
    13:00 +23°C° 0.5 mm 2 mps 610 mmHg 44%
    14:00 +23°C° 0.5 mm 2 mps 610 mmHg 46%
    15:00 +21°C° 0.5 mm 2 mps 610 mmHg 48%
    16:00 +20°C° 0.3 mm 2 mps 610 mmHg 53%
    17:00 +19°C° 0.3 mm 2 mps 609 mmHg 58%
    18:00 +19°C° 0.3 mm 1 mps 609 mmHg 63%
    19:00 +16°C° 0.1 mm 1 mps 609 mmHg 67%
    20:00 +15°C° 0.1 mm 1 mps 609 mmHg 71%
    21:00 +13°C° 0.1 mm 1 mps 608 mmHg 76%
    22:00 +13°C° 0.1 mm 1 mps 608 mmHg 75%
    23:00 +12°C° 0.1 mm 1 mps 608 mmHg 74%
    Show more